User: anonymous   Login
Location: Unspecified
(0.0000°N, 0.0000°E)
Time: 15:20:32
(UTC+01:00)
Language:

Gurwin Techsat 1B - Orbit

View from above orbital plane
View from above orbital plane
View from above satellite
View from above satellite

Ground track
Ground track

The orbit data is extracted from the following two-line orbital elements,

1 25397U 98043D   16340.91532002 +.00000013 +00000-0 +24792-4 0  9998
2 25397 098.5880 281.5557 0001288 150.3254 209.7998 14.23610055956076
Epoch (UTC): 05 December 2016 21:58:03
Eccentricity: 0.0001288
inclination: 98.5880°
perigee height: 812 km
apogee height: 814 km
right ascension of ascending node: 281.5557°
argument of perigee: 150.3254°
revolutions per day: 14.23610055
mean anomaly at epoch: 209.7998°
orbit number at epoch: 95607

The dashed part of the orbit path shows where the satellite is in the earth's shadow,  

DLR